Theta_e
298 299 300 310 315 319 320 318 316 317 319 319 319 320 320 320 318 319 319 318 317 318 319 320 321 321 322 321 321 320 318 318
293 295 297 302 308 312 315 316 317 316 315 315 316 317 318 318 318 317 317 317 318 318 320 321 322 323 322 321 320 319 318 317
292 292 293 295 299 306 309 312 314 315 316 316 316 315 313 315 315 315 318 319 321 321 321 322 322 322 321 320 318 317 315 315
291 291 292 292 293 293 296 302 302 306 308 308 309 310 312 313 314 316 317 318 317 320 320 320 320 318 316 316 313 311 312 312
291 292 292 292 292 293 293 294 294 296 297 298 299 300 301 303 304 306 307 309 311 311 311 309 309 308 307 306 307 307 307 305
291 292 292 292 293 293 294 294 295 295 296 297 297 297 297 296 297 302 303 303 303 302 299 299 300 300 300 299 300 299 299 297
291 291 292 293 293 294 294 294 296 296 296 295 295 293 292 291 291 292 294 295 295 294 293 292 293 295 296 296 297 296 294 293
292 292 292 293 294 294 294 294 294 293 291 291 290 291 290 290 290 290 289 289 289 290 291 292 293 294 294 293 292 293 293 292
291 291 292 292 293 293 293 292 291 290 289 289 289 289 288 288 288 287 287 287 288 289 290 290 290 292 292 292 291 291 291 290
291 291 292 293 293 291 289 289 288 288 288 288 288 283 284 282 282 285 286 287 287 287 287 286 287 291 291 291 288 287 287 287
290 291 291 291 290 288 288 287 288 287 287 286 285 282 281 282 281 280 285 285 285 286 286 285 286 289 290 290 286 285 285 285
290 290 289 287 287 287 286 286 285 285 283 282 283 282 281 280 280 285 285 285 285 285 285 285 285 285 289 290 286 285 285 285
287 286 285 286 286 285 285 284 282 282 283 284 284 284 284 282 285 285 285 285 285 285 284 284 284 286 288 290 290 289 285 285
284 282 282 280 283 283 282 283 283 284 283 284 284 284 284 286 285 284 285 284 283 283 281 277 279 283 287 287 289 289 287 285
280 280 279 275 280 283 282 282 283 282 280 281 282 282 281 278 283 283 282 278 281 280 281 282 277 277 279 280 282 284 286 287
280 281 278 278 278 280 282 282 282 282 281 280 276 275 276 276 275 276 275 277 274 273 274 280 281 277 285 284 283 285 285 285
279 278 275 275 274 273 270 274 279 278 277 275 276 274 275 277 276 286 286 287 287 286 281 275 284 287 287 287 288 288 288 284
274 272 270 271 272 273 269 279 280 279 277 277 278 280 279 275 275 276 275 284 285 285 285 285 285 286 286 287 287 288 285 282
269 267 267 270 270 271 276 275 277 280 281 281 280 275 275 276 276 276 276 273 269 277 281 283 284 285 285 285 283 281 284 282
265 264 264 269 267 268 274 280 280 280 280 279 275 280 275 269 272 274 274 273 271 265 273 272 280 280 280 280 268 272 277 280
Wind_Speed
7 9 9 10 11 12 14 16 16 17 15 14 14 15 15 11 14 12 10 7 7 8 10 10 11 12 12 12 13 13 11 11
5 4 7 6 8 9 9 11 11 11 12 12 12 12 10 11 11 10 7 7 8 9 11 13 13 13 13 14 14 14 14 12
5 4 4 6 7 8 7 8 8 8 8 8 6 7 7 9 8 7 10 9 12 11 12 13 13 14 13 13 12 13 13 13
5 6 6 6 6 6 6 7 6 6 6 6 6 6 7 7 6 6 6 6 7 9 11 12 11 9 7 8 7 7 9 9
5 6 5 5 6 6 5 5 6 6 6 7 7 7 6 5 5 6 6 6 5 5 5 4 5 5 6 6 7 7 7 7
7 7 5 5 5 5 5 6 6 7 6 6 5 4 4 3 2 2 1 1 0 1 2 2 2 2 3 3 5 5 5 5
8 7 8 8 7 6 5 5 4 6 5 4 4 3 2 2 2 3 1 2 2 3 2 2 2 3 5 5 4 4 5 5
10 10 8 9 8 7 6 5 5 5 5 4 4 4 4 3 3 2 2 2 2 3 4 5 5 7 6 5 4 4 4 5
8 7 8 5 5 6 6 6 6 5 5 5 5 4 4 4 3 3 2 3 2 2 3 3 4 8 9 9 4 3 4 5
8 5 6 7 7 7 6 6 6 6 5 4 4 3 3 3 3 3 2 2 2 2 2 2 3 8 8 7 3 3 5 3
9 6 8 7 8 8 7 7 6 6 5 4 5 5 5 4 4 1 3 3 2 3 3 2 3 6 7 6 1 1 2 1
8 10 8 7 7 7 8 7 6 6 6 6 5 6 4 5 3 3 4 4 3 4 2 3 3 5 9 9 1 2 1 2
10 8 6 7 8 8 7 6 5 6 7 6 5 4 4 6 4 4 4 4 4 2 3 2 3 6 8 10 9 5 1 2
8 8 4 3 5 8 6 7 7 8 7 7 5 4 4 5 6 4 4 4 3 2 2 2 1 1 7 9 13 12 4 2
10 8 5 2 5 7 9 8 9 9 7 5 8 6 4 2 3 4 4 3 3 2 2 1 2 4 2 1 3 5 4 4
10 9 7 5 5 4 6 10 11 9 7 7 5 5 5 3 3 2 1 3 2 2 3 3 4 3 6 5 1 1 2 1
8 9 7 6 5 2 1 2 8 8 5 3 4 4 4 5 4 8 8 11 10 8 4 1 3 7 7 7 7 5 4 2
9 9 8 6 5 3 3 4 6 8 7 6 5 5 5 3 5 7 2 11 12 11 13 11 8 9 9 8 7 6 5 2
10 9 8 7 5 3 3 4 6 7 6 5 5 4 4 3 3 3 3 2 3 8 11 14 13 12 14 16 8 4 4 2
10 7 7 7 5 4 4 5 5 5 4 5 4 6 4 3 4 4 4 3 3 3 6 9 11 12 13 14 3 2 2 4
Wind_Direction
208 204 204 199 197 199 200 201 200 202 203 207 208 213 219 213 221 222 231 214 205 207 215 219 221 224 224 234 235 234 233 237
211 220 208 184 177 185 185 187 196 195 200 205 212 212 214 219 225 224 219 206 208 204 212 220 224 226 225 232 235 230 235 231
208 173 171 190 189 195 191 191 197 200 196 200 194 188 198 213 217 204 215 209 214 216 220 227 229 233 228 231 227 226 231 239
199 198 187 181 177 181 184 189 172 165 175 186 196 194 205 211 212 213 215 218 211 217 224 230 235 231 230 240 240 231 234 236
200 206 195 187 181 179 179 176 172 177 189 200 205 210 213 208 208 211 214 220 223 226 225 212 212 213 218 226 241 241 240 237
201 200 194 185 176 167 173 171 167 169 176 197 188 184 182 192 171 196 151 151 264 207 277 310 319 306 275 271 270 274 276 274
198 192 195 190 190 188 190 180 157 156 163 138 128 116 110 107 107 109 71 34 43 17 8 336 308 303 288 279 279 269 267 273
199 198 193 192 180 190 182 148 159 152 144 145 145 148 149 131 115 87 90 81 58 15 8 341 334 342 327 293 286 281 265 255
203 191 193 175 155 128 136 149 151 152 158 154 158 158 142 131 114 100 78 73 87 39 25 354 345 350 334 325 308 293 284 285
183 160 146 151 145 134 138 141 150 161 158 168 151 128 130 124 119 95 101 66 56 62 47 29 344 352 336 326 318 295 286 291
154 132 142 160 149 145 152 150 163 158 149 130 121 131 120 120 104 88 90 96 65 36 21 17 332 349 344 329 177 264 285 339
148 160 159 152 146 149 150 161 150 133 114 100 95 101 108 116 112 129 109 105 92 75 23 355 350 340 341 345 251 208 302 290
142 151 157 161 149 152 159 129 125 119 114 112 112 115 122 124 106 84 92 90 65 67 62 2 356 2 344 344 334 255 188 266
132 127 103 136 149 142 138 139 133 126 116 121 107 115 129 132 132 127 126 122 123 108 81 326 324 3 15 359 341 334 296 222
130 140 148 91 112 134 149 147 137 130 131 133 139 136 113 67 117 116 123 127 125 122 101 65 338 323 0 70 52 352 344 303
152 151 138 114 103 114 148 149 142 138 138 139 139 135 116 85 115 102 257 149 173 145 127 40 9 287 335 333 347 50 288 62
134 127 117 104 108 113 344 126 139 131 121 113 110 80 96 119 88 78 104 95 89 101 107 98 49 29 20 3 348 331 325 152
133 118 107 102 96 46 57 96 103 125 128 120 119 130 138 127 137 134 34 85 76 69 61 60 41 29 21 20 27 25 27 10
105 97 102 107 92 16 10 107 120 121 121 127 132 98 89 101 102 106 106 91 348 19 45 34 30 32 32 30 42 29 11 357
94 90 100 109 89 356 344 102 106 122 129 119 121 127 112 103 106 104 99 93 85 14 27 13 23 43 34 38 63 24 3 359